Tracking 28790 objects as of 19-Apr-2024
HD Live streaming from Space Station
objects crossing your sky now

FENGYUN 1C DEB

Track FENGYUN 1C DEB now!
10-day predictions


NORAD ID: 30739
Int'l Code: 1999-025ASZ
Perigee: 781.5 km
Apogee: 929.4 km
Inclination: 98.7 °
Period: 101.9 minutes
Semi major axis: 7226 km
RCS: 0.0088 m2 (small)
Launch date: May 10, 1999
Source: People's Republic of China (PRC)
Launch site: Taiyaun Space Center, China (TSC)

Note: This is SATELLITE DEBRIS
Your satellite tracking list
Your tracking list is empty




NASA's NSSDC Master Catalog

Two Line Element Set (TLE):
1 30739U 99025ASZ 24108.93737146  .00001471  00000-0  76876-3 0  9992
2 30739  98.6544 107.6868 0102372 241.5921 181.0609 14.13244029883571
Source of the keplerian elements: AFSPC